Other Public Products
Issued by NWS Grand Forks, ND

Home | Current Version | Previous Version | Text Only | Print | Product List | Glossary On
Versions: 1 2 3 4 5 6 7 8 9 10 11 12 13 14 15 16 17 18 19 20 21 22 23 24 25 26 27 28 29 30 31 32 33 34 35 36 37 38 39 40 41 42 43 44 45 46 47 48 49 50
000
FPUS83 KFGF 190631
OPUFGF
PRAIRIE TO PINES WEATHER ROUNDUP
NATIONAL WEATHER SERVICE EASTERN NORTH DAKOTA/GRAND FORKS ND
1200 AM CST THU JAN 19 2017

 **SATELLITE DATA USED TO AUGMENT SKY COVER AT AUTOMATED STATIONS**
 *****  WEATHER ACROSS EASTERN NORTH DAKOTA  *****

CITY           SKY/WX    TMP DP  RH WIND       PRES   REMARKS
GRAND FORKS    FAIR      26  19  74 S12       29.61F WCI  16
6HR MIN TEMP:  26; 6HR MAX TEMP:  30;

GRAND FORKS AF FAIR      26  21  80 SW10      29.60F WCI  17
GRAND CITY NWS NOT AVBL
BUXTON           N/A     26  23  89 S6          N/A  WCI  19
DEVILS LAKE    FAIR      26  22  84 SE8       29.55F WCI  18
6HR MIN TEMP:  25; 6HR MAX TEMP:  34;

FARGO          FAIR      30  25  81 S13       29.66F WCI  20
6HR MIN TEMP:  29; 6HR MAX TEMP:  35;

WAHPETON ARPT  FAIR      25  21  86 SE8       29.68F WCI  16
$$

 *****  WEATHER ACROSS CENTRAL AND WESTERN NORTH DAKOTA  *****

CITY           SKY/WX    TMP DP  RH WIND       PRES   REMARKS
JAMESTOWN      FAIR      24  20  84 S6        29.59F WCI  17
6HR MIN TEMP:  23; 6HR MAX TEMP:  31;

BISMARCK       FAIR      20  14  77 SE8       29.59F WCI  10
6HR MIN TEMP:  18; 6HR MAX TEMP:  27;

MINOT          FAIR      32  25  75 SW12      29.49F WCI  23
6HR MIN TEMP:  29; 6HR MAX TEMP:  40;

MINOT AFB      CLEAR     35  26  69 SW15      29.49R
6HR MIN TEMP:  33; 6HR MAX TEMP:  38;

GARRISON         N/A     24  20  84 CALM      29.54S
6HR MIN TEMP:  20; 6HR MAX TEMP:  31;

WILLISTON      FAIR      25  21  85 SW3       29.55R
6HR MIN TEMP:  22; 6HR MAX TEMP:  33;

DICKINSON      FAIR      29  21  72 W13       29.54S WCI  19
6HR MIN TEMP:  28; 6HR MAX TEMP:  40;

HETTINGER      FAIR      17  13  84 W5        29.58R WCI  10
6HR MIN TEMP:  17; 6HR MAX TEMP:  35;

$$

 *****  OTHER OBSERVATIONS NORTHEAST NORTH DAKOTA  *****

CITY           SKY/WX    TMP DP  RH WIND       PRES   REMARKS
WALHALLA       NOT AVBL
LANGDON        NOT AVBL
CAVALIER         N/A     27  23  86 SE9       29.53F WCI  17
GRAFTON        FAIR      23  21  93 S15       29.60F WCI  10
CANDO          NOT AVBL
FORT TOTTEN      N/A     31  20  64 SE9       29.95S WCI  23
ROLLA            N/A    N/A N/A N/A MISG        N/A
RUGBY            N/A     25  21  86 S6        29.53S WCI  18
 ***** THE ABOVE OBSERVATIONS ARE NON NWS ARE NOT QUALITY
        CONTROLLED AND MAY MIS-REPORT RAIN FOR SNOW...
$$

 *****  OTHER OBSERVATIONS SOUTHEAST NORTH DAKOTA *****

CITY           SKY/WX    TMP DP  RH WIND       PRES   REMARKS
COOPERSTOWN    FAIR      23  19  86 S12       29.60F WCI  12
VALLEY CITY    FAIR      27  25  93 S9        29.63F WCI  17
OAKES          NOT AVBL
GWINNER        FAIR      23  21  93 SW8       29.65F WCI  14
SHEYENNE NWR     N/A     20  17  89 S3        29.95S
BUFFALO          N/A     29  21  71 SE12        N/A  WCI  19
WYNDMERE         N/A     19  18  93 SE3         N/A
 ***** THE ABOVE OBSERVATIONS ARE NON NWS ARE NOT QUALITY
       CONTROLLED AND MAY MIS-REPORT RAIN FOR SNOW...
$$

  *****  WEATHER ACROSS NORTHERN MINNESOTA  *****

CITY           SKY/WX    TMP DP  RH WIND       PRES   REMARKS
FLAG ISLAND    FAIR      21  18  86 SE12      29.61S WCI   9
WARROAD        FAIR      30  25  80 SW5       29.62S
ROSEAU         FAIR      30  25  80 S10       29.60F WCI  21
HALLOCK        FAIR      27  23  86 S18       29.58F WCI  13
THF RVR FALLS  FAIR      29  23  78 S12       29.64F WCI  19
6HR MIN TEMP:  26; 6HR MAX TEMP:  30;

HALSTAD          N/A     26  23  90 S16         N/A  WCI  13
FOSSTON        FAIR      27  19  74 S8        29.65F WCI  18
BAUDETTE       FAIR      30  22  72 S6        29.62F WCI  24
6HR MIN TEMP:  27; 6HR MAX TEMP:  31;

WASKISH        FAIR      34  25  69 S6        29.65F
CROOKSTON      FAIR      30  25  80 S15       29.65S WCI  19
$$
  *****  WEATHER ACROSS CENTRAL AND WEST MINNESOTA  *****

CITY           SKY/WX    TMP DP  RH WIND       PRES   REMARKS
BEMIDJI        FAIR      26  21  83 S6        29.68F WCI  19
PARK RAPIDS    FAIR      24  19  81 SE9       29.70F WCI  14
6HR MIN TEMP:  23; 6HR MAX TEMP:  33;

WADENA         FAIR      23  23 100 E3        29.70F FOG
DETROIT LAKES  FAIR      28  27  93 SE8       29.67F WCI  20
MOORHEAD       FAIR      28  25  86 S13       29.68F WCI  18
FERGUS FALLS   FAIR      28  27  93 SE9       29.73F WCI  20
ELBOW LAKE     FAIR      29  28  96 E12       29.70F FOG     WCI  19
6HR MIN TEMP:  28; 6HR MAX TEMP:  32;

MORRIS MN      FOG       28  27  93 SE12      29.71F VSB 1/4 WCI  18
STAPLES        FAIR      27  27 100 SE5       29.72F FOG     WCI  21
WHEATON        FAIR      32  30  93 SE13      29.70F WCI  22
$$
  *****  WEATHER ELSEWHERE ACROSS MINNESOTA  *****

CITY           SKY/WX    TMP DP  RH WIND       PRES   REMARKS
DULUTH         FAIR      33  29  85 SW9       29.76F
6HR MIN TEMP:  32; 6HR MAX TEMP:  36;

INTRNTL FALLS  FAIR      27  21  78 SE3       29.67F
6HR MIN TEMP:  23; 6HR MAX TEMP:  32;

ELY            FAIR      27  25  93 CALM      29.73F
CLOQUET        FAIR      30  27  86 S3        29.76F FOG
BRAINERD       MOCLDY    29  28  96 S7        29.74S FOG     WCI  22
6HR MIN TEMP:  28; 6HR MAX TEMP:  32;

HIBBING        FAIR      21  21 100 CALM      29.74F
6HR MIN TEMP:  21; 6HR MAX TEMP:  34;

ALEXANDRIA     FOG       26  26 100 SE8       29.72F VSB 1/2 WCI  18
6HR MIN TEMP:  25; 6HR MAX TEMP:  32;

SAINT CLOUD    FOG       30  30 100 SE5       29.78F VSB 1/4
6HR MIN TEMP:  24; 6HR MAX TEMP:  32;

MINNEAPOLIS    FAIR      30  28  92 SE6       29.83F WCI  24
6HR MIN TEMP:  30; 6HR MAX TEMP:  38;

$$

  *****  WEATHER ACROSS SOUTH DAKOTA  *****

CITY           SKY/WX    TMP DP  RH WIND       PRES   REMARKS
SIOUX FALLS    FAIR      38  37  97 SW6       29.77S
6HR MIN TEMP:  37; 6HR MAX TEMP:  42;

BROOKINGS      FAIR      34  33  96 S10       29.73F
WATERTOWN      FOG       27  27 100 S9        29.68F VSB 1/2 WCI  18
6HR MIN TEMP:  26; 6HR MAX TEMP:  31;

HURON          FAIR      32  31  96 S14       29.67F WCI  22
6HR MIN TEMP:  30; 6HR MAX TEMP:  36;

SISSETON         N/A     27  26  96 S9        29.67F WCI  18
ABERDEEN       FOG       12   9  87 SE5       29.64F VSB 1/4 WCI   4
6HR MIN TEMP:  12; 6HR MAX TEMP:  25;

MITCHELL       FAIR      33  32  96 SE12      29.71F WCI  24
PIERRE         FAIR      19  17  92 E5        29.59F WCI  12
6HR MIN TEMP:  16; 6HR MAX TEMP:  27;

MOBRIDGE       FAIR      20  15  81 CALM      29.58S
RAPID CITY     FAIR      30  21  69 N9        29.57R WCI  22
6HR MIN TEMP:  25; 6HR MAX TEMP:  32;

$$

  *****  SOME WEATHER IN NEARBY STATES *****

CITY           SKY/WX    TMP DP  RH WIND       PRES   REMARKS
GLASGOW MT     FAIR      30  24  78 S12       29.51R WCI  20
6HR MIN TEMP:  28; 6HR MAX TEMP:  36;

GREAT FALLS MT FAIR      38  26  62 SW13      29.49R
6HR MIN TEMP:  38; 6HR MAX TEMP:  44;

CHEYENNE WY    FAIR      30  16  56 W10       29.68F WCI  21
6HR MIN TEMP:  26; 6HR MAX TEMP:  42;

SCOTTSBLUFF NE FAIR      28  20  71 NW3       29.66R
6HR MIN TEMP:  27; 6HR MAX TEMP:  43;

OMAHA NE       FAIR      37  32  82 SE13      29.87F
6HR MIN TEMP:  37; 6HR MAX TEMP:  44;

DES MOINES IA  FOG       36  35  96 S12       29.95S VSB 1/2
6HR MIN TEMP:  34; 6HR MAX TEMP:  39;

DAVENPORT IA   FAIR      31  30  96 S6        30.01F FOG
6HR MIN TEMP:  28; 6HR MAX TEMP:  35;

CHICAGO IL     FAIR      30  29  96 S5        30.03F FOG
6HR MIN TEMP:  30; 6HR MAX TEMP:  36;

EAU CLAIRE WI  FAIR      26  25  96 CALM      29.88R FOG
6HR MIN TEMP:  23; 6HR MAX TEMP:  34;

LA CROSSE WI   CLOUDY    37  34  89 S8        29.92F FOG
6HR MIN TEMP:  35; 6HR MAX TEMP:  37;

$$

  *****  SOME NATIONAL WEATHER *****

CITY           SKY/WX    TMP DP  RH WIND       PRES   REMARKS
LA GUARDIA NY  MOCLDY    41  36  82 N5        30.02R              C1F1C2F2C3F3C4F4C5F5C6F6C7F7C8F8C9F9CaFaCbFbCcFcCdFdCe!


USA.gov is the U.S. government's official web portal to all federal, state and local government web resources and services.